Regional Weather Roundup
Issued by NWS Wakefield, VA

Home | Current Version | Previous Version | Graphics & Text | Print | Product List | Glossary On
Versions: 1 2 3 4 5 6 7 8 9 10 11 12 13 14 15 16 17 18 19 20 21 22 23 24 25 26 27 28 29 30 31 32 33 34 35 36 37 38 39 40 41 42 43 44 45 46 47 48 49 50
000
ASUS41 KAKQ 011710
RWRAKQ

REGIONAL WEATHER ROUNDUP
NATIONAL WEATHER SERVICE WAKEFIELD VA
100 PM EDT MON SEP 01 2014

Note: "fair" indicates few or no clouds below 12,000 feet with no
significant weather and/or obstructions to visibility. * = Denotes
station may not report precipitation (e.g., rain,snow,etc.),
thunder or fog.

VAZ042-051-052>054-056-011800-
NORTHERN VIRGINIA

CITY           SKY/WX    TMP DP  RH WIND       PRES   REMARKS
WASH NATIONAL  PTSUNNY   88  74  63 S10       29.99F HX  96
DULLES         PTSUNNY   85  71  63 CALM      30.00F
FORT BELVOIR   SUNNY     88  74  63 VRB2      29.99F HX  96
QUANTICO       SUNNY     84  77  79 S9        30.00F
FREDERICKSBRG* SUNNY     89  73  59 SW8       29.99F HX  98
STAFFORD*      SUNNY     86  73  65 W6        30.04F
WARRENTON      MOSUNNY   90  75  62 SW3       30.00F HX 100
CULPEPER*      MOSUNNY  N/A N/A N/A W5        30.01F
MANASSAS*      MOSUNNY   88  72  58 W6        30.00F
LEESBURG*      PTSUNNY   88  73  62 W5        30.01S HX  96
WINCHESTER     LGT RAIN  84  70  61 W8        30.02S
$$

VAZ048-049-060>072-079>083-011800-
CENTRAL AND SOUTH CENTRAL VIRGINIA...AND NORTH CENTRAL NORTH CAROLINA

CITY           SKY/WX    TMP DP  RH WIND       PRES   REMARKS
RICHMOND       PTSUNNY   93  68  43 SW14      30.02F HX  97
CHESTERFIELD*  PTSUNNY   91  66  43 W9        30.04F
PETERSBURG*    MOSUNNY   90  69  48 SW12      30.03F
HANOVER        MOSUNNY   91  70  49 W14       30.03F HX  96
TAPPAHANNOCK*  MOSUNNY   92  65  41 W8        30.01F
CHARLOTTSVILLE MOSUNNY   88  69  53 CALM      30.02F
ORANGE*        MOSUNNY   88  70  55 S9        30.03F
LOUISA*        MOSUNNY   90  72  55 SW8       30.02S HX  96
FARMVILLE*     MOSUNNY   90  68  48 SW5       30.02F
SOUTH HILL*    MOSUNNY   93  72  49 W8        30.11F HX 100
ROANOKE RAPIDS MOSUNNY   90  73  58 SW8G17    30.06F HX  98
RALEIGH        PTSUNNY   90  72  55 SW8       30.09F HX  97
$$

VAZ088>098-011800-
SOUTHEAST VIRGINIA

CITY           SKY/WX    TMP DP  RH WIND       PRES   REMARKS
NORFOLK        PTSUNNY   92  72  51 SW12G17   30.03F HX  99
VIRGINIA BEACH PTSUNNY   90  74  59 SW12      30.03F HX  99
NORFOLK NAVAL  PTSUNNY   92  74  55 VRB6      30.04F HX 101
WEST POINT*    MOSUNNY   91  71  52 W8        30.03F HX  97
NEWPORT NEWS   MOSUNNY   93  76  57 S13       30.03F HX 105
LANGLEY AFB    MOSUNNY   89  76  64 W9        30.02F HX 100
FORT EUSTIS    MOSUNNY   89  73  58 S8        30.01F HX  96
WILLIAMSBURG*  MOSUNNY   91  77  62 W5        30.03S HX 105
FRANKLIN*      MOSUNNY   90  73  58 SW10      30.04F HX  98
WAKEFIELD      MOSUNNY   92  76  59 MISG      30.03F HX 104
$$

VAZ020-022-025-037-045-011800-
WESTERN AND SOUTHWEST VIRGINIA

CITY           SKY/WX    TMP DP  RH WIND       PRES   REMARKS
STAUNTON*      CLOUDY    86  64  48 W7        30.08S
HOT SPRINGS VA MOSUNNY   71  62  72 W17       30.24S
LYNCHBURG      SUNNY     85  70  60 SW8       30.09F
DANVILLE       PTSUNNY   90  66  45 W13G18    30.09S
MARTINSVILLE   MOSUNNY   89  68  49 W6        30.13F
ROANOKE        PTSUNNY   88  66  48 W8        30.11F
BLACKSBURG     MOSUNNY   82  70  65 W9        30.18F
DUBLIN*        MOSUNNY   84  66  55 W9        30.18F
MARION*        PTSUNNY  N/A N/A N/A W14       30.23S
HILLSVILLE*    PTSUNNY   78  64  63 W9        30.22S
RICHLANDS*     CLOUDY    81  67  62 W7G18     30.21F
WISE*          PTSUNNY   81  63  54 W12G17    30.22F
ABINGDON*      CLOUDY    81  68  64 NW6       30.20S
$$

MDZ021>025-VAZ099-100-011800-
SOUTHERN MARYLAND AND THE DELMARVA PENINSULA

CITY           SKY/WX    TMP DP  RH WIND       PRES   REMARKS
PATUXENT RIVER MOSUNNY   88  71  57 W9        30.00F
BAY BRIDGE APT   N/A     82  72  69 SE8       29.99F
LEONARDTOWN    MOSUNNY   86  70  58 SW9       30.02F
DOVER          PTSUNNY   89  73  58 W8        29.98F HX  96
GEORGETOWN     PTSUNNY   88  72  58 S12       30.01F
EASTON         MOSUNNY   88  75  66 SW9       30.03F HX  97
CAMBRIDGE      SUNNY     86  72  62 SW7       30.00F
SALISBURY      MOSUNNY   90  74  59 W6        30.00F HX  99
OCEAN CITY     MOSUNNY   86  77  74 S9        30.01F HX  97
WALLOPS ISLAND MOSUNNY   88  76  67 S10       30.02F HX  99
ACCOMACK*      NOT AVBL
$$

NCZ012>017-030>032-011800-
EASTERN NORTH CAROLINA

CITY           SKY/WX    TMP DP  RH WIND       PRES   REMARKS
ELIZABETH CITY MOSUNNY   89  77  67 S13       30.05F HX 101
AHOSKIE*       MOSUNNY   88  75  64 CALM      30.06F HX  98
EDENTON*       SUNNY     88  75  65 SW7       30.06F HX  98
CURRITUCK*     SUNNY     91  71  52 W8        30.06F HX  97
KILL DEVIL HLS SUNNY     89  72  56 SW3       30.06F HX  96
MANTEO         SUNNY     87  74  63 S6        30.08S HX  95
CAPE HATTERAS  MOSUNNY   85  77  77 SW10      30.10S HX  95
GOLDSBORO      MOSUNNY   91  78  65 W3        30.06F HX 105
WASHINGTON     SUNNY     89  75  62 W5        30.08S HX  99
GREENVILLE     MOSUNNY   90  75  62 SW7       30.09S HX 100
NEW BERN       SUNNY     91  73  55 SW5       30.09F HX  99
WILMINGTON     SUNNY     90  74  59 SW5       30.09F HX  99
$$

VAZ048-011800-
ELSEWHERE

CITY           SKY/WX    TMP DP  RH WIND       PRES   REMARKS
HARRISBURG PA  CLOUDY    81  71  71 W6        29.99F
BALTIMORE      MOSUNNY   87  71  58 CALM      29.98F
ANNAPOLIS      MOSUNNY   81  74  79 SE15      29.98F
ANDREWS AFB    SUNNY     87  74  64 SW7       30.00F HX  96
WILMINGTON DE  MOSUNNY   86  73  65 SW7       30.00F
PHILADELPHIA   MOSUNNY   85  72  65 SW8       29.99F
WILDWOOD NJ*   MOSUNNY   88  70  55 SW8       30.01F
ATLANTIC CITY  MOSUNNY   85  72  65 VRB5      30.00F
HENDERSON NC   MOSUNNY   89  64  42 W7        30.08F
GREENSBORO     PTSUNNY   91  66  43 W14       30.11S
ROCKY MOUNT    MOSUNNY   91  74  57 VRB5      30.07F HX 100
FAYETTEVILLE   MOSUNNY   94  70  45 VRB5      30.08F HX 100
CHARLOTTE      CLOUDY    89  70  53 W6        30.13S
$$

VAZ100-011800-
MARINE

STATION/POSITION TIME  TEMP    WIND        PRES    WAVE   SWELL
                       AIR SEA DIR/SP/G            HT/PER HT/PER
                 (UTC) (F)     (DEG/KT/KT) (MB)    (FT/S) (FT/S)
44066 TX TWR #4  1700   74 74  240/  8/ 10 1015.9F   4/ 6   3/ 6
CAPE MAY NJ      1700   82 81  220/  6/  8 1015.6F
LEWES DE         1700   82 76   50/  4/  5 1015.7F
15NM E FENWICK I 1700   77 75              1016.3F   3/ 9
OCEAN-CITY-INLET 1700   81 77  190/  7/ 12 1016.1S
WACHAPREAGUE VA  1700   85 81  190/  9/ 12 1016.6F
THOMAS POINT MD  1700   79 79  160/  9/ 10 1016.5F
GOOSES REEF MD   1700   79     180/ 10/ 12 1016.3F
COVE POINT MD    1700   78     170/ 12/ 12 1015.9F
SOLOMONS ISLAND  1700      80                N/A
BISHOPS HEAD MD  1700   82 82  210/  8/  9 1016.1F
PINEY POINT MD   1700           CALM  /  1   N/A
POTOMAC MD       1700   83      80/  4/  4 1015.5F
CAMBRIDGE MD     1700   85 79  210/  6/ 13 1015.6F
LEWISETTA VA     1700   87 82  260/  9/ 11 1015.6F
RAPPAHANNOCK LGT 1700          180/ 11/ 12 1017.1F
STINGRAY PT      1700   83     190/  6/ 10   N/A
YORK RVR RNG VA  1700   84     230/  8/  9 1016.2F
YORKTOWN VA      1700   87 80  230/  8/ 12 1016.2F
JAMESTOWN VA     1700   87     300/  4/ 12   N/A
DOMINION TERM VA 1700   83     220/ 10/ 12 1017.0F
KIPTOPEKE VA     1700      83  210/  3/  3   N/A
CHES BAY BRIDGE  1700   86 78  230/  9/ 10 1016.5S
CAPE HENRY VA    1700   89     210/  7/  9 1015.8S
CHESAPEAKE LGHT  1600   80     190/ 13/ 13 1018.1F
WILLOUBY STN VA  1700   83     250/  5/  6 1015.7F
S CRANEY ISL VA  1700          220/  9/ 12 1016.7F
CAPE HENRY BUOY  1700      80                N/A     2/ 8
1ST LANDING BUOY 1700   85     220/  4/  4 1016.6S
CAPE CHARLES BUO 1700      80                N/A     2/ 8   2/ 8
OFFSHORE WE BUOY 1700      79                N/A     3/10   2/10
64NM E OF VA BCH 1700   78 78  200/ 10/ 12 1017.7F   3/ 9   2/ 9
DUCK PIER NC     1700   84 75  210/  9/ 10 1017.4F
44056 DUCK FRF   1700                        N/A     2/ 9
OREGON INLET NC  1700   82 82  180/ 11/ 13 1018.5F
HATTERAS NC      1700   84 83  200/  9/ 13 1019.7F
DIAMOND SHLS NC  1700   81     220/ 10/ 12 1019.3F   3/ 8   2/ 8
CAPE LOOKOUT NC  1600   83     240/  9/ 12 1019.6F
$$



USA.gov is the U.S. government's official web portal to all federal, state and local government web resources and services.